This is the latest recevied weather packets stored in our database for station/object OK2ZAW-23. If no packets are shown the sender has not sent any weather packets the latest 10 day(s).
| Time | Temp. | Humidity | Pressure | Rain* | Wind** | Luminosity | Snow |
|---|---|---|---|---|---|---|---|
| 1777880898 | 18.33° C | 47% | 1012.1 hPa | - | - | 336 W/m² | - |
| 1777879642 | 17.22° C | 49% | 1012 hPa | - | - | 335 W/m² | - |
| 1777879329 | 17.22° C | 49% | 1012 hPa | - | - | 335 W/m² | - |
| 1777879015 | 16.67° C | 49% | 1011.9 hPa | - | - | 335 W/m² | - |
| 1777878700 | 16.67° C | 50% | 1011.8 hPa | - | - | 335 W/m² | - |
| 1777877759 | 16.11° C | 51% | 1011.8 hPa | - | - | 336 W/m² | - |
| 1777877445 | 15.56° C | 51% | 1011.8 hPa | - | - | 335 W/m² | - |
| 1777877131 | 15.56° C | 52% | 1011.8 hPa | - | - | 335 W/m² | - |
| 1777876818 | 15° C | 52% | 1011.8 hPa | - | - | 335 W/m² | - |
| 1777876505 | 15° C | 52% | 1011.8 hPa | - | - | 335 W/m² | - |
| 1777876190 | 14.44° C | 53% | 1011.9 hPa | - | - | 335 W/m² | - |
| 1777875877 | 14.44° C | 53% | 1011.7 hPa | - | - | 335 W/m² | - |
| 1777875563 | 13.89° C | 54% | 1011.6 hPa | - | - | 335 W/m² | - |
| 1777875250 | 13.89° C | 54% | 1011.4 hPa | - | - | 335 W/m² | - |
| 1777874936 | 13.89° C | 54% | 1011.6 hPa | - | - | 335 W/m² | - |
| 1777874309 | 12.78° C | 55% | 1011.6 hPa | - | - | 335 W/m² | - |
| 1777873995 | 12.78° C | 56% | 1011.8 hPa | - | - | 335 W/m² | - |
| 1777873369 | 12.22° C | 56% | 1011.6 hPa | - | - | 336 W/m² | - |
| 1777873055 | 12.22° C | 56% | 1011.7 hPa | - | - | 335 W/m² | - |
| 1777872428 | 11.67° C | 56% | 1011.7 hPa | - | - | 335 W/m² | - |
| 1777871801 | 11.67° C | 56% | 1011.8 hPa | - | - | 335 W/m² | - |
| 1777871488 | 11.67° C | 56% | 1011.9 hPa | - | - | 335 W/m² | - |
| 1777871175 | 11.11° C | 56% | 1011.9 hPa | - | - | 335 W/m² | - |
| 1777870548 | 11.11° C | 56% | 1011.8 hPa | - | - | 335 W/m² | - |
| 1777869608 | 10.56° C | 57% | 1011.6 hPa | - | - | 335 W/m² | - |
* Rain since midnight (hover to see other rain measurements)
** Current wind speed in m/s (hover to see current wind gust speed)